Tracking 28790 objects as of 19-Apr-2024
HD Live streaming from Space Station
objects crossing your sky now

IUS R/B(2)

Track IUS R/B(2) now!


NORAD ID: 23615
Int'l Code: 1995-035D
Perigee: 35,682.5 km
Apogee: 35,787.0 km
Inclination: 16.2 °
Period: 1,433.1 minutes
Semi major axis: 42105 km
RCS: 5.3271 m2 (large)
Launch date: July 13, 1995
Source: United States (US)
Launch site: AIR FORCE EASTERN TEST RANGE (AFETR)

Note: This is a ROCKET BODY
Your satellite tracking list
Your tracking list is empty




NASA's NSSDC Master Catalog

Two Line Element Set (TLE):
1 23615U 95035D   24109.89245237  .00000012  00000-0  00000+0 0  9997
2 23615  16.2068 348.6970 0012409 149.7948  31.8194  1.00482661105591
Source of the keplerian elements: AFSPC